Regional Weather Roundup
Issued by NWS Pendleton, OR

Home | Current Version | Previous Version | Text Only | Print | Product List | Glossary On
Versions: 1 2 3 4 5 6 7 8 9 10 11 12 13 14 15 16 17 18 19 20 21 22 23 24 25 26 27 28 29 30 31 32 33 34 35 36 37 38 39 40 41 42 43 44 45 46 47 48 49 50
000
ASUS46 KPDT 260310
RWRPDT
PENDLETON REGIONAL WEATHER ROUNDUP
NATIONAL WEATHER SERVICE PENDLETON OREGON
800 PM PDT SUN JUN 25 2017

NOTE: FAIR INDICATES FEW OR NO CLOUDS BELOW 12,000 FEET WITH NO
SIGNIFICANT WEATHER AND/OR OBSTRUCTIONS TO VISIBILITY.

# INDICATES UNOFFICIAL STATION AND DATA

WAZ520-260410-
EAST SLOPES OF WASHINGTON CASCADES

CITY            SKY/WX      TMP DP  RH  WIND    PRES   REMARKS
#BULLFROG       N/A         87  49  27  NE1     N/A
#CLE ELUM HS    N/A         87  47  25  CALM    29.85S
#CLE ELUM LAKE  N/A         82  49  32  CALM    29.86F
#EASTON DOT     N/A         84  48  29  CALM    N/A
#ELK HTS DOT    N/A         82  82  100 S1      N/A
#NELSON 3SW     N/A         74  55  51  CALM    29.98S
#NILE           N/A         83  55  38  CALM    29.10S
#TEANAWAY 4NE   N/A         81  55  41  CALM    N/A
#TROUT LAKE 1NE N/A         86  66  51  CALM    29.77F
#TROUT LAKE 1E  N/A         91  59  34  CALM    29.90S HX 90
$$

WAZ521-260410-
SIMCOE HIGHLANDS

CITY            SKY/WX      TMP DP  RH  WIND    PRES   REMARKS
#BICKLETON HS   N/A         78  56  47  N2      29.64F
#CENTERVILLE 1SWN/A         89  54  31  SE2     29.72F
#GOLDENDALE 1NE N/A         89  25  10  CALM    N/A
#GOLDENDALE 4W  N/A         90  26  10  CALM    29.90S HX 86
#GOODNOE HILLS  N/A         91  46  21  N3      N/A    HX 87
#LYLE 6NE       N/A         90  53  28  SE1     29.73S HX 88
#PITT 4SE       N/A         86  52  31  CALM    29.79F
$$

WAZ026-260410-
KITTITAS VALLEY

CITY            SKY/WX      TMP DP  RH  WIND    PRES   REMARKS
ELLENSBURG AP   PTCLDY      81  60  49  E3      29.88S
#ELLENSBURG CWU N/A         89  53  29  CALM    29.72S
#ELLENSBURG 3NE N/A         76  64  66  CALM    27.96S
#KITTITAS 3S    N/A         83  52  34  E2      29.77S
#MANASTASH RDG  N/A         88  88  100 E7      N/A
#ROCKY CYN DOT  N/A         87  50  28  SW3     N/A
#RYEGRASS DOT   N/A         86  44  23  E5      N/A
$$

WAZ027-260410-
YAKIMA VALLEY

CITY            SKY/WX      TMP DP  RH  WIND    PRES   REMARKS
SUNNYSIDE AP    PTCLDY      85  60  43  CALM    29.81S
YAKIMA AIRPORT  MOCLDY      88  56  34  W7      29.83F
YAKIMA-VAGABOND CLEAR       89  42  19  W3      29.83S
#DONALD 2NE     N/A         90  26  10  W1      28.67F HX 86
#GRANDVIEW      N/A         87  51  29  CALM    29.78S
#MABTON         N/A         92  61  36  CALM    29.79F HX 92
#MOXEE 2E       N/A         90  N/A N/A CALM    29.75R
#NACHES 2SW     N/A         90  59  35  CALM    29.91S HX 89
#OUTLOOK DOT    N/A         90  52  27  CALM    29.78F HX 87
#PARKER DOT     N/A         89  52  28  SE2     29.82F
#TERRACE HTS    N/A         90  54  30  CALM    29.74F HX 88
#TOPPENISH      N/A         92  57  31  CALM    29.68F HX 91
#I82 S UMTANUM RN/A         90  46  22  SW6     N/A    HX 87
#UNION GAP DOT  N/A         88  52  29  SE1     29.85S
#W YAKIMA       N/A         90  47  23  W3      29.77S HX 87
#WHITE SWAN 5E  N/A         89  61  39  CALM    29.77F
#WILEY CITY 3W  N/A         85  48  28  CALM    29.83S
#ZILLAH DOT     N/A         92  45  20  NW1     N/A    HX 88
$$

WAZ028-260410-
LOWER COLUMBIA BASIN...WASHINGTON

CITY            SKY/WX      TMP DP  RH  WIND    PRES   REMARKS
PASCO           PTCLDY      85  61  45  N7      29.78F
PROSSER AWOS    N/A         84  59  43  CALM    29.83S
RICHLAND AWOS   PTCLDY      92  47  21  CALM    29.77F HX 88
#BENTON CITY    N/A         88  50  27  CALM    29.67S
#CONNELL 5N     N/A         98  51  21  CALM    29.76F HX 95
#CONNELL 5NW    N/A         90  57  33  CALM    29.71F HX 89
#ELTOPIA 6NW    N/A         92  63  38  CALM    28.79F HX 93
#KAHLOTUS       N/A         95  40  15  CALM    29.76F HX 91
#KENNEWICK 3S   N/A         89  52  28  CALM    29.76F
#PATERSON       N/A         92  52  26  E5      29.72F HX 89
#PROSSER DOT    N/A         91  47  22  CALM    29.81F HX 88
#SAGEMOOR 2W    N/A         86  64  48  CALM    29.60F
#TOUCHET 2S     N/A         87  69  55  CALM    29.72F
#WEST PASCO     N/A         94  54  26  CALM    29.73F HX 92
$$

WAZ029-260410-
FOOTHILLS OF THE BLUES...WASHINGTON

CITY            SKY/WX      TMP DP  RH  WIND    PRES   REMARKS
WALLA WALLA AP  PTCLDY      88  62  42  E10     29.82F
#CLYDE 6NW      N/A         94  48  21  E3      29.74F HX 91
#DAYTON SCHOOL  N/A         87  54  32  N1      29.88F
#DELANEY DOT    N/A         97  43  16  N2      29.83F HX 93
#LOWDEN 2SE     N/A         90  71  54  CALM    29.74F HX 96
#PLEASANT VIEW 1N/A         89  46  23  NE1     29.79F
#PRESCOTT       N/A         88  64  45  CALM    29.73F
#WHITMAN COLLEGEN/A         92  59  33  N3      29.79F HX 91
#WAITSBURG 5S   N/A         82  59  46  NE2     29.85F
#WAITSBURG 6SSE N/A         77  60  56  CALM    29.79S
#WAITSBURG 8N   N/A         88  N/A N/A NW5     29.86F
#WALLA WALLA 5E N/A         79  67  67  NE2     N/A
#WALLA WALLA U  N/A         95  56  27  CALM    29.74F HX 93
#WHITMAN MISSIONN/A         94  68  43  CALM    29.76F HX 99
$$

WAZ030-260410-
BLUE MOUNTAINS...WASHINGTON

CITY            SKY/WX      TMP DP  RH  WIND    PRES   REMARKS
#DIXIE 5SE      N/A         84  51  32  E10     29.89F
$$

ORZ009-041-WAZ024-260410-
COLUMBIA RIVER GORGE

CITY            SKY/WX      TMP DP  RH  WIND    PRES   REMARKS
HOOD RIVER AP   MOCLDY      86  59  40  S5      29.80R
THE DALLES AP   CLOUDY      90  58  34  W5      29.75S HX 89
#ARLINGTON AIRPON/A         90  49  25  E6      29.76F HX 87
#CELILO DOT     N/A         98  52  21  NE1     N/A    HX 95
#LYLE           N/A         96  59  29  N2      29.75R HX 95
#MARYHILL       N/A         94  41  16  N7      29.65S HX 90
#RUFUS DOT      N/A         95  N/A N/A CALM    N/A
#SMITHVILLE     N/A         92  52  26  NE1     29.67F HX 89

$$

ORZ510-260410-
NORTH CENTRAL OREGON

CITY            SKY/WX      TMP DP  RH  WIND    PRES   REMARKS
#ANTELOPE       N/A         89  51  27  NE5     29.56S
#CHENOWITH 1W   N/A         51  35  54  NW14    N/A
#COW CYN RST AREN/A         89  42  19  N10     N/A
#DUFUR          N/A         82  58  44  CALM    29.74R
#DUFUR 9E       N/A         88  44  22  E7      29.79F
#GRASS VALLEY 1SN/A         87  42  21  NE5     29.93S
#MAUPIN SCHOOL  N/A         95  51  23  N1      29.85R HX 92
#MORO SCHOOL    N/A         89  53  29  CALM    29.96F
#SHANIKO 5WSW   N/A         87  42  21  N14     N/A
#SHANIKO 4NW    N/A         85  41  21  N14     29.98F
#TYGH VALLEY 2NEN/A         94  49  22  CALM    29.74R HX 91
#WAPANITIA AIRPON/A         87  48  26  N3      29.78R
#WASCO DOT      N/A         91  52  27  E7      N/A    HX 88
#WASCO 5NE      N/A         92  50  24  E3      29.75F HX 89
$$

ORZ511-260410-
CENTRAL OREGON

CITY            SKY/WX      TMP DP  RH  WIND    PRES   REMARKS
BEND AIRPORT    CLOUDY      N/A N/A N/A NW6     30.00R
MADRAS AIRPORT  CLOUDY      90  37  15  W16     29.94R HX 86
PRINEVILLE AP   CLOUDY      84  45  26  W21G30  29.99R
REDMOND AIRPORT CLOUDY      86  41  21  W15G29  29.98R
#ASHWOOD SCHOOL N/A         91  42  18  N1      29.85S HX 87
#BEND 1SW       N/A         79  49  35  SW1     N/A
#BEND-AWBREY    N/A         80  47  31  SW3     29.78R
#BEND-KIM LN    N/A         84  44  25  SW12    29.72F
#CULVER         N/A         87  47  25  SW7     29.72R
#CULVER 8W      N/A         78  49  36  W1      29.99R
#LAKE BILLY CHINN/A         84  N/A N/A W20     29.89R
#MADRAS 4S      N/A         86  26  11  CALM    N/A
#POWELL BUTTE   N/A         84  43  24  NW8     29.98R
#PRINEVILLE     N/A         87  49  27  NW10    29.84R
#PRINEVILLE 3N  N/A         85  50  30  W14G24  29.78R
#WARM SPRINGS   N/A         94  49  22  CALM    29.66R HX 91

$$


ORZ509-260410-
EAST SLOPES OF OREGON CASCADES

CITY            SKY/WX      TMP DP  RH  WIND    PRES   REMARKS
SISTERS AWOS    N/A         81  48  32  S17G29  29.97S
#BLUE BOX PASS  N/A         79  N/A N/A W2      N/A
#CAMP SHERMAN   N/A         79  48  34  N2      29.96R
#LA PINE 4NW    N/A         74  56  53  CALM    29.88R
#LAVA BUTTE DOT N/A         74  49  41  CALM    N/A
#SISTERS ODOT   N/A         37   8  29  S3      N/A
#SISTERS 3N     N/A         80  44  28  S6      30.00S
#SUNRIVER       N/A         80  49  34  CALM    29.83F
#TUMALO 3W      N/A         87  38  18  W8      29.64F
#WANOGA BUTTE D N/A         69  41  36  N8      N/A

$$

ORZ044-260410-
LOWER COLUMBIA BASIN...OREGON

CITY            SKY/WX      TMP DP  RH  WIND    PRES   REMARKS
HERMISTON       PTCLDY      90  51  26  N7      29.77F HX 87
#BOARDMAN SCHOOLN/A         93  46  20  CALM    29.75F HX 89
#ECHO 8SW       N/A         87  56  35  CALM    29.80S
#I-84 EX 198 DOTN/A         96  54  25  N7      N/A    HX 94
#IONE SCHOOL    N/A         94  41  16  CALM    29.76F HX 90
#UMATILLA       N/A         95  52  24  CALM    29.67S HX 92
$$

ORZ507-260410-
NORTHERN FOOTHILLS OF THE BLUES

CITY            SKY/WX      TMP DP  RH  WIND    PRES   REMARKS
PENDLETON AIRPT PTCLDY      90  50  26  NE8     29.83F HX 87
#ADAMS 3WNW     N/A         83  63  51  NE1     29.75F
#ATHENA         N/A         83  61  48  NE5     29.79F
#CAYUSE         N/A         90  57  33  CALM    29.73F HX 89
#HELIX SCHOOL   N/A         89  52  28  NE6     29.76F
#HELIX 3N       N/A         87  49  27  NE6     29.85F
#HOLDMAN 5SE    N/A         92  50  24  CALM    29.83F HX 89
#HOLDMAN 6E     N/A         88  54  31  NE2     29.57F
#M-F GROVE ELEM N/A         93  53  26  CALM    29.80F HX 91
#M-FREEWATER 5SEN/A         91  65  42  CALM    29.83F HX 93
#PENDLETON DNTN N/A         91  47  22  E1      29.80S HX 88
#PDT AQUATIC CTRN/A         90  46  22  CALM    29.81S HX 87
#PDT SUNRIDGE   N/A         92  55  29  CALM    29.83F HX 90
#PENDLETON 7NW  N/A         93  59  32  CALM    25.94S HX 92
#PILOT ROCK 1S  N/A         88  50  27  CALM    29.88S
#PILOT ROCK     N/A         90  49  25  CALM    29.87F HX 87
#TUTUILLA       N/A         89  59  37  CALM    29.89S
#UMAPINE 2E     N/A         89  74  61  CALM    29.76F
#WESTON SCHOOL  N/A         88  48  25  SE1     29.75S

$$

ORZ508-260410-
SOUTHERN FOOTHILLS OF THE BLUES

CITY            SKY/WX      TMP DP  RH  WIND    PRES   REMARKS
LEXINGTON       MOCLDY      91  34  13  N12     29.88S HX 87
#AJAX           N/A         87  37  17  S6      30.04F
#CONDON 5W      N/A         82  41  23  N2      29.95F
#HEPPNER EOC    N/A         89  45  22  N7      29.70R
#HEPPNER 4NE    N/A         83  46  27  E2      29.76F
#LEXINGTON 2SE  N/A         93  40  16  CALM    29.80S HX 89
#MIKKALO        N/A         91  39  16  E2      29.98F HX 87
#OLEX 4N        N/A         91  44  20  NE3     29.80F HX 87
#RUGGS 5NE      N/A         86  39  19  N8      30.14S
#RUGGS 2SW      N/A         87  41  20  N2      29.77S

$$

ORZ502-503-260410-
BLUE MOUNTAINS

CITY            SKY/WX      TMP DP  RH  WIND    PRES   REMARKS
MEACHAM         PTCLDY      79  50  36  CALM    30.02F
#BATTLE MTN DOT N/A         78  47  34  NE1     N/A
#CUTSFORTH PARK N/A          0  -78  1  CALM    29.80F
#GRANITE        N/A         74  36  25  E1      30.02S
#GREENHORN 9SW  N/A         79  43  28  E1      30.00F
#HARDMAN 10S    N/A         79  50  36  CALM    29.89F
#HEPPNER 15SE   N/A         75  54  48  CALM    29.94F
#LADD CYN SMT   N/A         86  42  21  S3      N/A
#LADD CREEK ODOTN/A         81  47  30  SW3     N/A
#LONG CREEK HS  N/A         75  30  19  CALM    N/A
#N POWDER DOT   N/A         83  44  25  S7      N/A
#PIKES PEAK     N/A         84  52  33  N6      27.99S
#SUMMERVILLE 5NWN/A         72  54  53  N2      29.96F
#TOLLGATE       N/A         76  45  33  CALM    29.97F
#TROY SCHOOL    N/A         91  54  29  CALM    29.62F HX 89
#UKIAH          N/A         79  51  38  N2      29.74S
#WESTON 4E      N/A         82  54  38  CALM    29.74F
$$

ORZ505-260410-
JOHN DAY BASIN

CITY            SKY/WX      TMP DP  RH  WIND    PRES   REMARKS
JOHN DAY        PTCLDY      89  35  15  CALM    29.99R
#JOHN DAY KJDY  N/A         92  N/A N/A CALM    30.22R
#ANTELOPE 9ESE  N/A         97  46  18  NE3     N/A    HX 93
#DAYVILLE SCHOOLN/A         93  26   9  CALM    29.85R HX 88
#MITCHELL       N/A         93  54  27  CALM    30.07R HX 91
#MITCHELL 8NW   N/A         90  41  18  NE1     29.74S HX 86
#MONUMENT HS    N/A         96  44  17  E6      29.80R HX 92
#MT. VERNON 5SE N/A         88  38  17  S5      29.96S
#SPRAY SCHOOL   N/A         93  N/A N/A CALM    N/A
$$

ORZ506-260410-
OCHOCO AND JOHN DAY HIGHLANDS

CITY            SKY/WX      TMP DP  RH  WIND    PRES   REMARKS
#HORSE RIDGE DO N/A         81  41  24  W8      N/A
#PAULINA ODOT   N/A         91  27  10  CALM    N/A    HX 87
#PINE MTN OBS   N/A         70  42  36  S7      N/A
#PRAIRIE CITY   N/A         85  52  32  CALM    30.11S
#SENECA         N/A         86  N/A N/A SE1     N/A
#SENECA 9NW     N/A         81  46  29  CALM    29.81S
$$

ORZ049-260410-
GRANDE RONDE VALLEY

CITY            SKY/WX      TMP DP  RH  WIND    PRES   REMARKS
LA GRANDE       CLEAR       84  19   9  S8      29.93F
#COVE           N/A         87  54  32  CALM    29.98S
#COVE SCHOOL    N/A         84  50  31  CALM    29.97S
#COVE 6NW       N/A         90  54  30  CALM    29.80S HX 88
#ELGIN 3N       N/A         83  52  34  CALM    29.92S
#ELGIN 1E       N/A         96  53  24  CALM    N/A    HX 94
#IMBLER SCHOOL  N/A         86  59  40  CALM    29.91S
#ISLAND CITY 4N N/A         85  61  45  CALM    29.82R
#LA GRANDE-LEFFEN/A         88  43  21  N5      29.95F
#UNION 1S       N/A         89  43  20  SE1     29.80S
$$

ORZ050-260410-
WALLOWA COUNTY

CITY            SKY/WX      TMP DP  RH  WIND    PRES   REMARKS
JOSEPH AIRPORT  PTCLDY      75  43  32  S5      30.06F
#ENTERPRISE HS  N/A         85  50  30  CALM    29.72S
#IMNAHA SCHOOL  N/A         85  47  27  CALM    29.88S
#IMNAHA 10S     N/A         82  44  26  SW3     29.95S
#JOSEPH         N/A         77  47  35  S5      30.04F
#JOSEPH 3N      N/A         79  62  56  E1      30.07S
#JOSEPH 3W      N/A         72  46  39  SW2     29.93F
#LOSTINE        N/A         79  51  38  S2      29.63F
#LOSTINE 3SE    N/A         76  49  39  CALM    30.05S
#MT HOWARD 8000 N/A         68  32  26  CALM    30.40S
#PROMISE 1S     N/A         79  54  42  CALM    29.91S
#WALLOWA LAKE   N/A         67  47  49  SW1     30.11S
#WALLOWA SCHOOL N/A         88  54  31  CALM    29.93S



$$



USA.gov is the U.S. government's official web portal to all federal, state and local government web resources and services.